Погода в Шехзаделер

Турция     38°38′55″N   27°31′38″E
темп.,
°C
ветер,
м/с
пор.,
м/с
влажн.,
%
обл.,
%
осадки,
мм/ч
давл.,
гПа
погр.,
м
24 мая, вт
вт2400:00+19с1152100 0.0 101011
03:00+18с01545 0.0 101011
06:00+17св11568 0.0 101111
09:00+22в22414 0.0 1012378
12:00+28в11301 0.0 10111492
15:00+30з232884 0.0 10102686
18:00+29зсз44305 0.0 10101899
21:00+22з33460 0.0 101241
25 мая, ср
ср2500:00+21зсз22474 0.0 101316
03:00+20зсз11525 0.0 101411
06:00+18в01580 0.0 101411
09:00+24в214510 0.0 1015358
12:00+30ююв113320 0.0 10151235
15:00+33з232711 0.0 10142358
18:00+31з66324 0.2 1014969
21:00+24з34521 0.8 101653
26 мая, чт
чт2600:00+22зсз12550 0.0 101713
03:00+21з11600 0.0 101711
06:00+19всв11670 0.0 101711
09:00+25в22510 0.0 1018376
12:00+31ю12340 0.0 10171300
15:00+35с352114 0.0 10153551
18:00+33с56243 0.0 10151869
21:00+25з12440 0.0 101624
27 мая, пт
пт2700:00+23ссв01492 0.0 101813
03:00+21св11549 0.0 101712
06:00+20св116068 0.0 101712
09:00+25всв24472 0.0 1017560
12:00+31св56280 0.0 10152157
15:00+33ссв56230 0.0 10132518
18:00+31ссв66270 0.0 10121968
21:00+24с22505 0.0 101321
28 мая, сб
сб2800:00+21с11611 0.0 101316
03:00+19ссз11660 0.0 101312
06:00+18св11675 0.0 101211
09:00+24всв22485 0.0 1012429
12:00+30в23260 0.0 10111340
15:00+34всв22190 0.0 10092590
18:00+33с43220 0.0 10081818
21:00+25з22420 0.0 100922